Tampa, FL

2:01 AM EST on December 10, 2016 (GMT -0500)
Vandenberg

Weather History for KVDF - May, 2012

Change the Weather History Date:

Wednesday, May 9, 2012

  Actual Average (KPCM) Record (KPCM)
Temperature  
Mean Temperature 76 °F -  
Max Temperature 89 °F 87 °F 96 °F (1955)
Min Temperature 62 °F 64 °F 49 °F (1960)
Cooling Degree Days 10    
Growing Degree Days 26 (Base 50)    
Moisture  
Dew Point 67 °F    
Average Humidity 77    
Maximum Humidity 100    
Minimum Humidity 46    
Precipitation  
Precipitation 0.05 in - - ()
Sea Level Pressure  
Sea Level Pressure 29.87 in    
Wind  
Wind Speed 2 mph (WSW)    
Max Wind Speed 14 mph    
Max Gust Speed 23 mph    
Visibility 9 miles    
Events Rain    
Averages and records for this station are not official NWS values.
T = Trace of Precipitation, MM = Missing Value Source: NWS Daily Summary

Daily Weather History Graph

Daily Weather History Graph

Search for Another Location

Airport or City:

Trip Planner

Search our weather history database for the weather conditions in past years. The results will help you decide how hot, cold, wet, or windy it might be!

Date:

Astronomy

May. 09, 2012 Rise Set
Actual Time 6:43 AM EDT 8:08 PM EDT
Civil Twilight 6:17 AM EDT 8:34 PM EDT
Nautical Twilight 5:47 AM EDT 9:04 PM EDT
Astronomical Twilight 5:16 AM EDT 9:35 PM EDT
Moon No Moon Rise 10:02 AM EDT (5/9)
Length of Visible Light 14h 16m
Length of Day
13h 25m
Waning Gibbous, 83% of the Moon is Illuminated
May 9
Waning Gibbous
May 12
Last Quarter
May 20
New
May 28
First Quarter
Jun 4
Full

Hourly Weather History & Observations

Time (EDT) Temp. Heat Index Dew Point Humidity Pressure Visibility Wind Dir Wind Speed Gust Speed Precip Events Conditions
12:35 AM 68.0 °F - 64.4 °F 88% 29.92 in 10.0 mi Calm Calm - N/A   Clear
12:55 AM 66.2 °F - 64.4 °F 94% 29.92 in 10.0 mi Calm Calm - N/A   Clear
1:15 AM 64.4 °F - 62.6 °F 94% 29.91 in 10.0 mi Calm Calm - N/A   Clear
1:35 AM 66.2 °F - 62.6 °F 88% 29.91 in 10.0 mi Calm Calm - N/A   Clear
1:55 AM 64.4 °F - 62.6 °F 94% 29.90 in 10.0 mi Calm Calm - N/A   Clear
2:15 AM 64.4 °F - 62.6 °F 94% 29.90 in 10.0 mi Calm Calm - N/A   Clear
2:35 AM 64.4 °F - 62.6 °F 94% 29.90 in 7.0 mi Calm Calm - N/A   Clear
2:55 AM 64.4 °F - 62.6 °F 94% 29.90 in 7.0 mi Calm Calm - N/A   Clear
3:15 AM 64.4 °F - 62.6 °F 94% 29.89 in 7.0 mi Calm Calm - N/A   Clear
3:35 AM 64.4 °F - 62.6 °F 94% 29.89 in 7.0 mi Calm Calm - N/A   Clear
3:55 AM 64.4 °F - 62.6 °F 94% 29.89 in 10.0 mi Calm Calm - N/A   Scattered Clouds
4:15 AM 64.4 °F - 62.6 °F 94% 29.88 in 10.0 mi Calm Calm - N/A   Clear
4:35 AM 64.4 °F - 62.6 °F 94% 29.88 in 7.0 mi Calm Calm - N/A   Clear
5:15 AM 64.4 °F - 62.6 °F 94% 29.88 in 10.0 mi Calm Calm - N/A   Clear
5:35 AM 64.4 °F - 62.6 °F 94% 29.88 in 7.0 mi Calm Calm - N/A   Clear
5:55 AM 64.4 °F - 62.6 °F 94% 29.87 in 7.0 mi Calm Calm - N/A   Clear
6:15 AM 64.4 °F - 62.6 °F 94% 29.88 in 2.5 mi Calm Calm - N/A   Clear
6:35 AM 62.6 °F - 62.6 °F 100% 29.88 in 3.0 mi Calm Calm - N/A   Clear
6:55 AM 62.6 °F - 60.8 °F 94% 29.88 in 7.0 mi Calm Calm - N/A   Clear
7:15 AM 64.4 °F - 62.6 °F 94% 29.89 in 2.0 mi Calm Calm - N/A   Clear
7:35 AM 64.4 °F - 62.6 °F 94% 29.90 in 5.0 mi Calm Calm - N/A   Clear
7:55 AM 68.0 °F - 66.2 °F 94% 29.90 in 7.0 mi Calm Calm - N/A   Clear
8:15 AM 69.8 °F - 68.0 °F 94% 29.90 in 7.0 mi Calm Calm - N/A   Clear
8:35 AM 71.6 °F - 68.0 °F 88% 29.91 in 10.0 mi Calm Calm - N/A   Clear
8:55 AM 77.0 °F - 69.8 °F 78% 29.91 in 10.0 mi South 3.5 mph - N/A   Clear
9:15 AM 80.6 °F 84.6 °F 71.6 °F 74% 29.91 in 10.0 mi SSW 4.6 mph - N/A   Scattered Clouds
9:35 AM 80.6 °F 83.9 °F 69.8 °F 70% 29.91 in 10.0 mi WSW 5.8 mph - N/A   Mostly Cloudy
9:55 AM 82.4 °F 86.3 °F 69.8 °F 66% 29.90 in 10.0 mi SW 6.9 mph - N/A   Scattered Clouds
10:15 AM 82.4 °F 86.3 °F 69.8 °F 66% 29.90 in 10.0 mi SW 6.9 mph - N/A   Scattered Clouds
10:35 AM 86.0 °F 90.4 °F 69.8 °F 58% 29.90 in 10.0 mi SSW 9.2 mph - N/A   Scattered Clouds
10:55 AM 78.8 °F - 71.6 °F 78% 29.90 in 10.0 mi WSW 4.6 mph - N/A Rain Light Rain
11:15 AM 80.6 °F 85.4 °F 73.4 °F 79% 29.90 in 10.0 mi Calm Calm - N/A   Mostly Cloudy
11:35 AM 82.4 °F 86.3 °F 69.8 °F 66% 29.91 in 10.0 mi West 3.5 mph - N/A   Mostly Cloudy
11:55 AM 86.0 °F 90.4 °F 69.8 °F 58% 29.90 in 10.0 mi WSW 3.5 mph 17.3 mph N/A   Mostly Cloudy
12:15 PM 86.0 °F 90.4 °F 69.8 °F 58% 29.89 in 10.0 mi SW 9.2 mph 17.3 mph N/A   Scattered Clouds
12:35 PM 87.8 °F 92.6 °F 69.8 °F 55% 29.89 in 10.0 mi SW 13.8 mph 20.7 mph N/A   Scattered Clouds
12:55 PM 87.8 °F 92.6 °F 69.8 °F 55% 29.88 in 10.0 mi SW 8.1 mph - N/A   Scattered Clouds
1:15 PM 87.8 °F 92.6 °F 69.8 °F 55% 29.87 in 10.0 mi WSW 8.1 mph 17.3 mph N/A   Mostly Cloudy
1:35 PM 89.6 °F 93.4 °F 68.0 °F 49% 29.86 in 10.0 mi SW 9.2 mph 16.1 mph N/A   Scattered Clouds
2:15 PM 87.8 °F 91.4 °F 68.0 °F 52% 29.86 in 10.0 mi SW 8.1 mph 16.1 mph N/A   Mostly Cloudy
2:35 PM 87.8 °F 92.6 °F 69.8 °F 55% 29.85 in 10.0 mi SW 10.4 mph 20.7 mph N/A   Mostly Cloudy
2:55 PM 86.0 °F 90.4 °F 69.8 °F 58% 29.84 in 10.0 mi SW 12.7 mph 23.0 mph N/A   Mostly Cloudy
3:15 PM 87.8 °F 92.6 °F 69.8 °F 55% 29.84 in 10.0 mi SW 11.5 mph 21.9 mph N/A   Mostly Cloudy
3:35 PM 87.8 °F 90.4 °F 66.2 °F 49% 29.84 in 10.0 mi WSW 9.2 mph 18.4 mph N/A   Mostly Cloudy
4:15 PM 87.8 °F 91.4 °F 68.0 °F 52% 29.82 in 10.0 mi WSW 9.2 mph 17.3 mph N/A   Clear
4:35 PM 89.6 °F 92.2 °F 66.2 °F 46% 29.82 in 10.0 mi West 10.4 mph - N/A   Scattered Clouds
4:55 PM 86.0 °F 89.4 °F 68.0 °F 55% 29.82 in 10.0 mi West 6.9 mph - N/A   Scattered Clouds
5:15 PM 86.0 °F 89.4 °F 68.0 °F 55% 29.81 in 10.0 mi West 9.2 mph - N/A   Scattered Clouds
5:35 PM 84.2 °F 87.3 °F 68.0 °F 58% 29.82 in 10.0 mi West 5.8 mph - N/A   Scattered Clouds
5:55 PM 82.4 °F 85.4 °F 68.0 °F 62% 29.81 in 10.0 mi West 6.9 mph - N/A   Scattered Clouds
6:15 PM 84.2 °F 88.4 °F 69.8 °F 62% 29.81 in 10.0 mi West 6.9 mph - N/A   Mostly Cloudy
6:35 PM 82.4 °F 86.3 °F 69.8 °F 66% 29.81 in 10.0 mi WSW 6.9 mph - N/A   Mostly Cloudy
6:55 PM 82.4 °F 85.4 °F 68.0 °F 62% 29.80 in 10.0 mi West 10.4 mph 16.1 mph N/A   Mostly Cloudy
7:15 PM 82.4 °F 86.3 °F 69.8 °F 66% - - North - - N/A   Mostly Cloudy
7:35 PM - - - N/A% - 7.0 mi North - - 0.02 in Rain Light Rain
7:55 PM 75.2 °F - 69.8 °F 83% - 10.0 mi North - - 0.02 in   Unknown
8:15 PM - - - N/A% 29.81 in 10.0 mi Calm Calm - 0.02 in   Unknown
8:35 PM 73.4 °F - 69.8 °F 88% 29.81 in 10.0 mi Calm Calm - 0.03 in   Scattered Clouds
8:55 PM 73.4 °F - 69.8 °F 88% 29.81 in 10.0 mi Calm Calm - 0.03 in   Scattered Clouds
9:15 PM 71.6 °F - 69.8 °F 94% 29.82 in 10.0 mi Calm Calm - N/A   Clear
9:55 PM 71.6 °F - 69.8 °F 94% 29.83 in 10.0 mi Calm Calm - N/A   Clear
10:35 PM 73.4 °F - 69.8 °F 88% 29.83 in 10.0 mi Calm Calm - N/A   Clear
10:55 PM 73.4 °F - 69.8 °F 88% 29.83 in 10.0 mi Calm Calm - N/A   Clear
11:35 PM 73.4 °F - 69.8 °F 88% 29.84 in 10.0 mi Calm Calm - N/A   Scattered Clouds
11:55 PM 73.4 °F - 69.8 °F 88% 29.84 in 10.0 mi Calm Calm - N/A   Clear